, AK

(GMT )
Golovin

Weather History for PAGL - November, 2012

Change the Weather History Date:

Tuesday, November 13, 2012

  Actual Average Record
Temperature  
Mean Temperature 16 °F -  
Max Temperature 26 °F - - ()
Min Temperature 5 °F - - ()
Degree Days  
Heating Degree Days 50    
Moisture  
Dew Point 5 °F    
Average Humidity 51    
Maximum Humidity 93    
Minimum Humidity 34    
Precipitation  
Precipitation 0.00 in - - ()
Sea Level Pressure  
Sea Level Pressure 29.85 in    
Wind  
Wind Speed 19 mph (NE)    
Max Wind Speed 45 mph    
Max Gust Speed 55 mph    
Visibility 10 miles    
Events      
T = Trace of Precipitation, MM = Missing Value Source: NWS Daily Summary

Daily Weather History Graph

Daily Weather History Graph

Search for Another Location

Airport or City:

Trip Planner

Search our weather history database for the weather conditions in past years. The results will help you decide how hot, cold, wet, or windy it might be!

Date:

Astronomy

Nov. 13, 2012 Rise Set
Actual Time 10:20 AM AKST 4:51 PM AKST
Civil Twilight 9:19 AM AKST 5:52 PM AKST
Nautical Twilight 8:18 AM AKST 6:53 PM AKST
Astronomical Twilight 7:21 AM AKST 7:50 PM AKST
Moon 10:27 AM AKST (11/13) 4:37 PM AKST (11/13)
Length of Visible Light 8h 32m
Length of Day
6h 31m
Waning Crescent, 0% of the Moon is Illuminated
Nov 13
Waning Crescent
Nov 13
New
Nov 20
First Quarter
Nov 28
Full
Dec 6
Last Quarter

Hourly Weather History & Observations

Time (AKST) Temp. Windchill Dew Point Humidity Pressure Visibility Wind Dir Wind Speed Gust Speed Precip Events Conditions
12:16 AM 5.0 °F -9.1 °F 3.2 °F 92% 30.16 in 10.0 mi WNW 9.2 mph - N/A   Clear
12:36 AM 5.0 °F -9.1 °F 1.4 °F 85% 30.15 in 10.0 mi NW 9.2 mph - N/A   Clear
12:56 AM 6.8 °F -5.9 °F 3.2 °F 85% 30.15 in 10.0 mi WNW 8.1 mph - N/A   Clear
1:16 AM 6.8 °F -4.8 °F 3.2 °F 85% 30.14 in 10.0 mi NW 6.9 mph - N/A   Clear
1:36 AM 17.6 °F 3.7 °F 15.8 °F 93% 30.14 in 10.0 mi NE 13.8 mph 25.3 mph N/A   Clear
1:56 AM 21.2 °F 16.4 °F -0.4 °F 39% 30.13 in 10.0 mi NNE 3.5 mph - N/A   Clear
2:16 AM 17.6 °F 8.2 °F 5.0 °F 58% 30.12 in 10.0 mi NNW 6.9 mph - N/A   Clear
2:36 AM 21.2 °F 3.9 °F 3.2 °F 46% 30.08 in 10.0 mi NE 26.5 mph 33.4 mph N/A   Clear
2:56 AM 23.0 °F 9.6 °F 5.0 °F 46% 30.09 in 10.0 mi North 16.1 mph 25.3 mph N/A   Clear
3:16 AM 21.2 °F 13.6 °F 10.4 °F 63% 30.07 in 10.0 mi SE 5.8 mph 20.7 mph N/A   Clear
3:36 AM 21.2 °F 9.5 °F 8.6 °F 58% 30.06 in 10.0 mi ENE 11.5 mph 17.3 mph N/A   Clear
3:56 AM 21.2 °F 4.5 °F 8.6 °F 58% 30.04 in 10.0 mi ENE 24.2 mph 34.5 mph N/A   Clear
4:16 AM 21.2 °F 4.9 °F 8.6 °F 58% 30.03 in 10.0 mi ENE 23.0 mph 34.5 mph N/A   Clear
4:36 AM 21.2 °F 3.3 °F 8.6 °F 58% 30.02 in 10.0 mi ENE 28.8 mph 40.3 mph N/A   Clear
5:16 AM 21.2 °F 1.9 °F 8.6 °F 58% 29.98 in 10.0 mi ENE 34.5 mph 47.2 mph N/A   Clear
5:36 AM 21.2 °F 3.3 °F 6.8 °F 54% 29.98 in 10.0 mi NE 28.8 mph 43.7 mph N/A   Clear
5:56 AM 21.2 °F 6.8 °F 8.6 °F 58% 30.00 in 10.0 mi NE 17.3 mph 29.9 mph N/A   Clear
6:16 AM 21.2 °F 4.5 °F 6.8 °F 54% 30.00 in 10.0 mi NE 24.2 mph 31.1 mph N/A   Clear
6:36 AM 21.2 °F 6.4 °F 6.8 °F 54% 30.00 in 10.0 mi NE 18.4 mph 29.9 mph N/A   Clear
6:56 AM 21.2 °F 11.7 °F 6.8 °F 54% 30.01 in 10.0 mi East 8.1 mph 23.0 mph N/A   Clear
7:16 AM 21.2 °F 8.3 °F 3.2 °F 46% 30.02 in 10.0 mi ENE 13.8 mph 18.4 mph N/A   Clear
7:36 AM 21.2 °F 7.8 °F 3.2 °F 46% 30.00 in 10.0 mi ENE 15.0 mph - N/A   Clear
7:56 AM 21.2 °F 10.9 °F 3.2 °F 46% 29.99 in 10.0 mi ENE 9.2 mph 17.3 mph N/A   Clear
8:16 AM 21.2 °F 16.4 °F 3.2 °F 46% 29.98 in 10.0 mi NNE 3.5 mph - N/A   Clear
8:36 AM 21.2 °F 8.3 °F 6.8 °F 54% 29.96 in 10.0 mi NE 13.8 mph 19.6 mph N/A   Clear
8:56 AM 21.2 °F 6.4 °F 5.0 °F 50% 29.94 in 10.0 mi NE 18.4 mph 24.2 mph N/A   Clear
9:16 AM 21.2 °F 5.2 °F 5.0 °F 50% 29.93 in 10.0 mi NE 21.9 mph 27.6 mph N/A   Clear
9:36 AM 21.2 °F 5.6 °F 5.0 °F 50% 29.92 in 10.0 mi NE 20.7 mph 27.6 mph N/A   Clear
9:56 AM 21.2 °F 4.5 °F 5.0 °F 50% 29.92 in 10.0 mi NE 24.2 mph 31.1 mph N/A   Clear
10:16 AM 19.4 °F 2.5 °F 6.8 °F 58% 29.91 in 10.0 mi NE 23.0 mph 32.2 mph N/A   Clear
10:36 AM 19.4 °F 1.8 °F 6.8 °F 58% 29.90 in 10.0 mi NE 25.3 mph 31.1 mph N/A   Clear
10:56 AM 21.2 °F 6.0 °F 6.8 °F 54% 29.89 in 10.0 mi NE 19.6 mph 29.9 mph N/A   Clear
11:36 AM 21.2 °F 6.4 °F 6.8 °F 54% 29.89 in 10.0 mi NE 18.4 mph 25.3 mph N/A   Clear
11:56 AM 21.2 °F 7.3 °F 6.8 °F 54% 29.88 in 10.0 mi NE 16.1 mph 25.3 mph N/A   Clear
12:16 PM 21.2 °F 10.1 °F 6.8 °F 54% 29.88 in 10.0 mi North 10.4 mph 20.7 mph N/A   Clear
12:36 PM 21.2 °F 11.7 °F 6.8 °F 54% 29.87 in 10.0 mi NNW 8.1 mph 17.3 mph N/A   Clear
12:56 PM 23.0 °F 13.9 °F 6.8 °F 50% 29.86 in 10.0 mi North 8.1 mph 17.3 mph N/A   Clear
1:16 PM 23.0 °F 13.1 °F 6.8 °F 50% 29.85 in 10.0 mi North 9.2 mph - N/A   Clear
1:36 PM 23.0 °F 9.6 °F 6.8 °F 50% 29.84 in 10.0 mi NNE 16.1 mph 23.0 mph N/A   Clear
1:56 PM 23.0 °F 8.3 °F 6.8 °F 50% 29.82 in 10.0 mi NE 19.6 mph 28.8 mph N/A   Clear
2:16 PM 21.2 °F 6.4 °F 6.8 °F 54% 29.82 in 10.0 mi NNE 18.4 mph 29.9 mph N/A   Clear
2:36 PM 21.2 °F 8.3 °F 6.8 °F 54% 29.81 in 9.0 mi North 13.8 mph 21.9 mph N/A   Clear
2:56 PM 21.2 °F 7.3 °F 6.8 °F 54% 29.79 in 5.0 mi North 16.1 mph 23.0 mph N/A   Clear
3:16 PM 21.2 °F 4.5 °F 6.8 °F 54% 29.77 in 10.0 mi NNE 24.2 mph 32.2 mph N/A   Clear
3:36 PM 21.2 °F 2.7 °F 5.0 °F 50% 29.74 in 9.0 mi NE 31.1 mph 42.6 mph N/A   Clear
3:56 PM 21.2 °F 3.5 °F 5.0 °F 50% 29.72 in 10.0 mi NE 27.6 mph 41.4 mph N/A   Clear
4:16 PM 21.2 °F 2.2 °F 3.2 °F 46% 29.70 in 9.0 mi ENE 33.4 mph 43.7 mph N/A   Scattered Clouds
4:36 PM 21.2 °F 0.9 °F 3.2 °F 46% 29.68 in 9.0 mi ENE 39.1 mph 49.5 mph N/A   Partly Cloudy
4:56 PM 21.2 °F 0.9 °F 3.2 °F 46% 29.67 in 10.0 mi ENE 39.1 mph 48.3 mph N/A   Clear
5:16 PM 21.2 °F 0.9 °F 3.2 °F 46% 29.67 in 10.0 mi ENE 39.1 mph 49.5 mph N/A   Scattered Clouds
5:36 PM 21.2 °F 0.3 °F 3.2 °F 46% 29.64 in 10.0 mi ENE 42.6 mph 50.6 mph N/A   Mostly Cloudy
5:56 PM 21.2 °F 1.2 °F 3.2 °F 46% 29.65 in 10.0 mi ENE 38.0 mph 51.8 mph N/A   Partly Cloudy
6:36 PM 21.2 °F 0.5 °F 3.2 °F 46% 29.64 in 10.0 mi ENE 41.4 mph 51.8 mph N/A   Partly Cloudy
7:16 PM 21.2 °F -0.1 °F 1.4 °F 42% 29.62 in 10.0 mi ENE 44.9 mph 55.2 mph N/A   Clear
7:36 PM 21.2 °F 0.5 °F 1.4 °F 42% 29.61 in 10.0 mi ENE 41.4 mph 51.8 mph N/A   Partly Cloudy
7:56 PM 23.0 °F 2.8 °F 1.4 °F 39% 29.61 in 10.0 mi ENE 42.6 mph 51.8 mph N/A   Mostly Cloudy
8:16 PM 23.0 °F 3.4 °F 1.4 °F 39% 29.61 in 10.0 mi ENE 39.1 mph 49.5 mph N/A   Overcast
8:36 PM 23.0 °F 3.4 °F 1.4 °F 39% 29.60 in 10.0 mi ENE 39.1 mph 49.5 mph N/A   Overcast
8:56 PM 23.0 °F 4.1 °F 3.2 °F 43% 29.60 in 10.0 mi ENE 35.7 mph 49.5 mph N/A   Overcast
9:16 PM 23.0 °F 3.7 °F 1.4 °F 39% 29.59 in 10.0 mi ENE 38.0 mph 48.3 mph N/A   Overcast
9:36 PM 24.8 °F 6.2 °F 1.4 °F 36% 29.59 in 10.0 mi ENE 38.0 mph 46.0 mph N/A   Overcast
10:16 PM 24.8 °F 6.4 °F 1.4 °F 36% 29.58 in 10.0 mi ENE 36.8 mph 48.3 mph N/A   Overcast
10:36 PM 24.8 °F 6.6 °F 1.4 °F 36% 29.59 in 10.0 mi NE 35.7 mph 46.0 mph N/A   Overcast
10:56 PM 24.8 °F 6.8 °F 1.4 °F 36% 29.58 in 10.0 mi NE 34.5 mph 46.0 mph N/A   Overcast
11:16 PM 24.8 °F 6.2 °F 1.4 °F 36% 29.57 in 10.0 mi ENE 38.0 mph 44.9 mph N/A   Overcast
11:36 PM 26.6 °F 9.8 °F 1.4 °F 34% 29.58 in 10.0 mi ENE 32.2 mph 46.0 mph N/A   Overcast
11:56 PM 26.6 °F 9.3 °F 1.4 °F 34% 29.57 in 10.0 mi ENE 34.5 mph 47.2 mph N/A   Overcast